Home   Weather   Schwedt/Oder   Past weeks

Flag for Germany Past Weather in Schwedt/Oder, Brandenburg, Germany — Yesterday and Last 2 Weeks

Now
52 °F

Scattered clouds.


Feels Like: 49 °F
Forecast: 35 / 56 °F
Wind: 9 mph from West

Location: Szczecin Airport

Current Time: Apr 27, 2017 at 3:35:55 pm

Latest Report: Apr 27, 2017 at 3:00 pm


Visibility: N/A

Pressure: 29.92 "Hg

Humidity: 44%

Dew Point: 30 °F

Location of Schwedt/OderLocation

Past Weather in Schwedt/Oder — Graph

°F

Schwedt/Oder Temperature Yesterday

Maximum temperature yesterday: 50 °F (at 2:30 pm)
Minimum temperature yesterday: 30 °F (at 6:00 am)
Average temperature yesterday: 41 °F

High & Low Weather Summary for the Past Weeks

 TemperatureHumidityPressure
High55 °F (Apr 21, 5:30 pm)100% (Apr 15, 3:30 pm)30.57 "Hg (Apr 15, 3:30 pm)
Low23 °F (Apr 20, 5:30 am)37% (Apr 20, 3:30 pm)29.56 "Hg (Apr 25, 5:30 am)
Average41 °F77%29.97 "Hg
* Reported Apr 12 2:00 pm — Apr 27 2:30 pm, Schwedt/Oder, Weather by CustomWeather, © 2017

Note: Actual official high and low records may vary slightly from our data, if they occured in-between our weather recording intervals... More about our weather records

Advertising

Schwedt/Oder Weather History for the Previous 24 Hours

Scroll right to see more
 ConditionsComfort  
Time TempWeatherWind HumidityBarometerVisibility
2:30 pm
Thu, Apr 27
50 °FPassing clouds.10 mph47%29.92 "HgN/A
2:00 pm50 °FPassing clouds.13 mph50%29.92 "HgN/A
1:30 pm50 °FPassing clouds.10 mph50%29.92 "HgN/A
1:00 pm50 °FScattered clouds.8 mph50%29.92 "HgN/A
12:30 pm48 °FPartly sunny.10 mph50%29.92 "HgN/A
12:00 pm48 °FBroken clouds.7 mph50%29.92 "HgN/A
11:30 am46 °FBroken clouds.9 mph53%29.95 "HgN/A
11:00 am48 °FPassing clouds.3 mph54%29.95 "HgN/A
10:30 am46 °FSunny.3 mph62%29.92 "Hg10 mi
10:00 am45 °FPassing clouds.5 mph66%29.92 "HgN/A
9:30 am45 °FSunny.3 mph71%29.92 "Hg10 mi
9:00 am41 °FSunny.2 mph81%29.92 "Hg10 mi
8:30 am39 °FSunny.2 mph81%29.92 "Hg10 mi
8:00 am37 °FPassing clouds.3 mph87%29.92 "HgN/A
7:30 am36 °FSunny.1 mph87%29.92 "Hg10 mi
7:00 am36 °FSunny.2 mph87%29.89 "Hg10 mi
6:30 am30 °FFog.1 mph93%29.89 "Hg4 mi
6:00 am28 °FIce fog.1 mph100%29.89 "Hg2 mi
5:30 am30 °FFog.2 mph100%29.89 "Hg4 mi
5:00 am30 °FIce fog.6 mph93%29.89 "Hg3 mi
4:30 am28 °FClear.7 mph100%29.89 "Hg10 mi
3:30 am30 °FClear.1 mph93%29.89 "Hg10 mi
3:00 am32 °FClear.1 mph93%29.89 "Hg10 mi
2:30 am32 °FClear.2 mph93%29.89 "Hg10 mi
2:00 am30 °FClear.5 mph100%29.89 "Hg10 mi
1:30 am32 °FPassing clouds.3 mph93%29.89 "HgN/A
1:00 am34 °FClear.2 mph93%29.89 "Hg10 mi
12:30 am34 °FClear.2 mph87%29.89 "Hg10 mi
12:00 am34 °FClear.2 mph87%29.89 "Hg10 mi
11:30 pm
Wed, Apr 26
36 °FPassing clouds.5 mph81%29.89 "HgN/A
11:00 pm36 °FClear.7 mph87%29.89 "Hg10 mi
10:30 pm37 °FClear.3 mph81%29.89 "Hg10 mi
10:00 pm37 °FClear.5 mph81%29.89 "Hg10 mi
9:30 pm39 °FClear.7 mph75%29.89 "Hg10 mi
9:00 pm41 °FClear.2 mph70%29.89 "Hg10 mi
8:30 pm43 °FClear.2 mph66%29.86 "Hg10 mi
8:00 pm45 °FSunny.10 mph61%29.86 "Hg10 mi
7:30 pm46 °FScattered clouds.10 mph62%29.86 "HgN/A
7:00 pm48 °FScattered clouds.5 mph54%29.86 "HgN/A
6:30 pm48 °FPassing clouds.6 mph50%29.86 "HgN/A
6:00 pm50 °FScattered clouds.7 mph50%29.86 "HgN/A
5:30 pm50 °FPassing clouds.8 mph47%29.86 "HgN/A
5:00 pm50 °FPassing clouds.3 mph54%29.86 "HgN/A
4:30 pm50 °FScattered clouds.8 mph50%29.86 "HgN/A
4:00 pm50 °FScattered clouds.9 mph47%29.86 "HgN/A
3:30 pm48 °FPassing clouds.8 mph50%29.86 "HgN/A
3:00 pm48 °FScattered clouds.12 mph50%29.86 "HgN/A
Weather by CustomWeather, © 2017

See weather overviewHow to use our weather pages